{"data":{"norad_id":59949,"epoch":"2026-05-24T22:45:36.930240Z","epoch_age_seconds":82565,"freshness":"FRESH","line1":"1 59949U 24107E   26144.94834410  .00001133  00000+0  14211-4 0  9990","line2":"2 59949  53.1592 235.3041 0001068  34.2613 325.8473 15.69711022114186","mean_motion":15.69711022,"eccentricity":0.0001068,"inclination_deg":53.1592,"raan_deg":235.3041,"arg_perigee_deg":34.2613,"mean_anomaly_deg":325.8473,"bstar":1.4211e-5,"rev_number":11418,"period_min":91.736630489175,"perigee_km":359.00422231237,"apogee_km":360.44342938477,"semimajor_km":6737.8608258486,"source":"CELESTRAK","updated_at":"2026-05-25T13:38:19.127724Z"}}